Tracking 22438 objects as of 25-Feb-2021
HD Live streaming from Space Station
objects crossing your sky now

OSCAR 22 (UoSAT 5)

Track OSCAR 22 (UoSAT 5) now!
10-day predictions
OSCAR 22 (UoSAT 5) is classified as:


NORAD ID: 21575
Int'l Code: 1991-050B
Perigee: 757.9 km
Apogee: 767.1 km
Inclination: 98.6 °
Period: 99.9 minutes
Semi major axis: 7133 km
RCS: 0.42 m2 (medium)
Launch date: July 17, 1991
Source: United Kingdom (UK)
Launch site: FRENCH GUIANA (FRGUI)

Uplink (MHz): 145.900/145.975
Downlink (MHz): 435.120
Beacon (MHz):
Mode: 9600bps FSK
Call sign: UOSAT5-11 -12
Status: Inactive


Earth imaging system; store-and-forward communications system; semi-operational in 2004.
aabbcc
Your satellite tracking list
Your tracking list is empty




NASA's NSSDC Master Catalog

Two Line Element Set (TLE):
1 21575U 91050B   21055.43811464  .00000027  00000-0  22438-4 0  9991
2 21575  98.5972 114.3083 0006414 233.6635 126.3962 14.40947903555235
Source of the keplerian elements: AFSPC